N12KBM KSNA-

Flight info

Callsign N12KBM
Flight time N/A
Altitude VFR
Route VFR
Aircraft PA28/L-VGD/C

Departure

Time 2026-05-03 20:23
Airport John Wayne Orange County International Airport (KSNA)

Arrival

Time N/A
Airport -
Time Latitude Longitude Altitude Speed Heading
2026-05-03 20:17 33.67615 -117.87077 53 ft 0 kts 357°
2026-05-03 20:21 33.67627 -117.87049 54 ft 8 kts 111°
2026-05-03 20:21 33.67597 -117.86983 56 ft 0 kts 112°
2026-05-03 20:22 33.67573 -117.86927 57 ft 16 kts 120°
2026-05-03 20:22 33.67437 -117.86970 55 ft 48 kts 209°
2026-05-03 20:23 33.67005 -117.87251 181 ft 81 kts 208°
2026-05-03 20:23 33.66479 -117.87603 431 ft 89 kts 208°
2026-05-03 20:23 33.65948 -117.87982 779 ft 83 kts 213°
2026-05-03 20:23 33.65502 -117.88392 1072 ft 88 kts 221°
2026-05-03 20:24 33.65017 -117.88914 1318 ft 99 kts 221°
2026-05-03 20:24 33.64474 -117.89490 1545 ft 109 kts 223°
2026-05-03 20:24 33.63884 -117.90146 1594 ft 132 kts 215°
2026-05-03 20:24 33.63124 -117.90731 1878 ft 124 kts 206°
2026-05-03 20:25 33.62298 -117.91133 2035 ft 126 kts 202°
2026-05-03 20:25 33.61627 -117.91506 2550 ft 109 kts 204°
2026-05-03 20:25 33.60791 -117.91778 2604 ft 125 kts 191°
2026-05-03 20:25 33.59966 -117.92002 2906 ft 121 kts 198°
2026-05-03 20:26 33.59203 -117.92346 3194 ft 118 kts 202°
2026-05-03 20:26 33.58468 -117.92773 3428 ft 116 kts 204°
2026-05-03 20:26 33.57740 -117.93112 3662 ft 118 kts 195°
2026-05-03 20:26 33.56887 -117.93316 3698 ft 130 kts 183°
2026-05-03 20:27 33.56105 -117.92913 4014 ft 119 kts 141°
2026-05-03 20:27 33.55526 -117.92175 4174 ft 124 kts 131°
2026-05-03 20:27 33.54877 -117.91349 4080 ft 144 kts 134°
2026-05-03 20:27 33.54303 -117.90403 4265 ft 134 kts 123°
2026-05-03 20:28 33.54085 -117.89741 4454 ft 126 kts 101°
2026-05-03 20:28 33.54001 -117.88694 4630 ft 128 kts 90°
2026-05-03 20:28 33.67615 -117.87077 53 ft 0 kts 357°
2026-05-03 20:30 33.67658 -117.87073 54 ft 22 kts 21°
2026-05-03 20:30 33.67685 -117.87002 53 ft 0 kts 86°
2026-05-03 20:46 33.67685 -117.86966 53 ft 11 kts 88°
2026-05-03 20:46 33.67700 -117.86877 54 ft 10 kts 115°
2026-05-03 20:46 33.67502 -117.86932 57 ft 61 kts 207°
2026-05-03 20:46 33.67112 -117.87241 294 ft 70 kts 219°
2026-05-03 20:47 33.66941 -117.87742 612 ft 68 kts 282°
2026-05-03 20:47 33.67208 -117.88304 768 ft 90 kts 302°
2026-05-03 20:47 33.67571 -117.88950 1033 ft 97 kts 302°
2026-05-03 20:47 33.67947 -117.89633 1289 ft 102 kts 301°
2026-05-03 20:48 33.68340 -117.90388 1474 ft 114 kts 300°
2026-05-03 20:48 33.68854 -117.91093 1814 ft 108 kts 323°
2026-05-03 20:48 33.69519 -117.91586 2115 ft 110 kts 329°